Date,TemperatureHighF,TemperatureAvgF,TemperatureLowF,DewpointHighF,DewpointAvgF,DewpointLowF,HumidityHigh,HumidityAvg,HumidityLow,PressureMaxIn,PressureMinIn,WindSpeedMaxMPH,WindSpeedAvgMPH,GustSpeedMaxMPH,PrecipitationSumIn
2013-1-1,25.7,18.7,10.0,23.7,13.9,6.5,92,81,65,30.01,29.86,0,0,0,0.00
2013-1-2,31.6,15.3,6.3,15.2,8.6,3.3,87,76,45,30.03,29.95,0,0,0,0.00
2013-1-3,40.5,27.0,16.5,29.3,20.7,10.4,86,77,63,30.14,29.94,9,2,9,0.00
2013-1-4,41.4,26.7,14.2,25.7,19.6,-12.3,89,75,50,30.17,30.06,12,4,12,0.00
2013-1-5,44.6,33.5,23.9,30.7,25.1,19.1,82,72,55,30.07,29.90,11,4,11,0.00
2013-1-6,36.5,29.8,19.4,30.9,23.8,17.0,90,78,66,30.14,29.80,21,6,21,0.00
2013-1-7,46.0,29.7,18.7,27.2,22.6,16.5,93,77,43,30.16,29.93,11,3,11,0.00
2013-1-8,56.3,38.4,27.7,35.3,29.1,21.9,89,71,35,29.99,29.88,10,4,10,0.00
2013-1-9,56.5,43.3,33.6,38.7,36.0,28.8,90,76,50,30.26,29.92,10,3,10,0.00
2013-1-10,54.9,43.1,34.3,54.6,37.4,26.4,99,81,61,30.25,29.57,17,6,17,3.27
2013-1-11,63.7,55.2,49.8,57.8,50.2,-41.6,99,84,62,29.65,29.52,17,6,17,7.65
2013-1-12,62.1,46.9,30.9,52.5,42.9,29.4,96,86,68,29.74,29.58,21,6,21,0.50
2013-1-13,31.1,23.9,16.9,29.6,20.6,11.9,95,87,80,30.10,29.65,0,0,0,0.00
2013-1-14,29.3,19.8,14.9,19.4,14.0,10.2,88,78,64,30.24,30.10,0,0,0,0.00
2013-1-15,30.7,23.1,15.1,22.8,18.1,12.4,90,81,66,30.19,29.88,0,0,0,0.00
2013-1-16,43.7,30.7,18.5,26.2,21.8,16.6,94,72,42,29.89,29.76,14,3,14,0.00
2013-1-17,39.0,32.1,22.1,30.5,25.3,18.9,90,76,58,30.23,29.87,19,5,19,0.00
2013-1-18,46.6,34.6,21.6,30.7,26.4,18.9,92,73,45,30.25,29.87,17,6,17,0.00
2013-1-19,59.4,45.0,36.1,38.6,32.9,28.7,79,64,42,29.89,29.65,17,7,17,0.00
2013-1-20,38.8,25.4,20.5,30.9,14.7,9.3,81,64,49,30.11,29.84,20,8,20,0.00
2013-1-21,20.5,14.9,10.0,14.9,2.2,-5.6,80,57,40,30.12,30.01,27,10,27,0.00
2013-1-22,18.1,11.9,5.4,2.7,-1.9,-4.9,67,54,41,30.22,30.11,12,5,12,0.00
2013-1-23,41.9,25.5,13.1,22.0,11.9,1.8,73,57,38,30.13,29.88,24,4,24,0.00
2013-1-24,30.9,20.3,10.2,11.0,5.9,-0.1,76,54,37,30.38,30.05,18,5,24,0.00
2013-1-25,42.1,29.9,23.0,22.7,15.7,4.0,74,56,41,30.09,29.83,14,4,14,0.00
2013-1-26,45.1,27.4,15.1,20.6,13.8,8.8,76,59,27,30.17,29.95,53,4,53,0.00
2013-1-27,44.4,33.0,24.8,43.3,28.6,-23.8,98,85,10,30.10,29.74,100,5,100,0.00
2013-1-28,61.2,54.2,44.4,58.6,52.6,43.6,99,94,87,29.75,29.65,17,6,17,0.00
2013-1-29,65.1,59.8,52.5,58.8,56.8,-1.3,98,90,75,29.65,29.22,20,7,20,0.00
2013-1-30,52.5,45.7,24.8,52.2,43.1,-18.5,99,91,65,29.60,29.11,118,7,118,0.00
2013-1-31,32.5,21.4,7.5,19.0,12.0,-2.0,76,67,51,30.08,29.60,26,11,26,0.00
2013-2-1,27.0,15.1,5.2,17.9,3.5,-38.7,84,61,10,30.23,29.97,23,7,23,0.00
2013-2-2,36.7,26.5,20.3,25.1,18.9,-17.9,91,73,10,29.97,29.80,11,4,11,0.00
2013-2-3,34.7,26.9,20.3,25.5,19.2,15.5,93,73,49,29.91,29.75,21,4,21,0.00
2013-2-4,55.2,35.1,24.8,33.1,25.3,17.3,87,69,41,29.81,29.54,17,6,17,0.00
2013-2-5,51.6,35.2,26.8,35.6,28.7,24.2,90,78,53,29.88,29.62,14,4,14,0.00
2013-2-6,57.2,37.5,24.6,33.0,28.5,22.9,95,73,36,30.00,29.85,8,2,8,0.00
2013-2-7,54.0,41.1,32.9,43.8,35.8,28.9,96,83,52,29.85,29.61,21,4,21,0.00
2013-2-8,36.7,31.7,29.1,34.6,27.2,23.8,92,83,72,30.15,29.76,21,8,21,0.00
2013-2-9,48.4,35.7,29.8,31.6,27.4,23.5,81,72,50,30.14,29.82,11,3,11,0.00
2013-2-10,52.9,44.5,36.7,50.9,41.5,31.4,97,90,59,29.83,29.37,17,6,17,0.00
2013-2-11,49.1,39.6,30.2,35.0,28.6,24.6,86,65,45,29.91,29.47,56,7,56,0.00
2013-2-12,44.1,37.2,25.7,31.0,28.9,23.4,92,72,57,29.92,29.69,9,2,9,0.00
2013-2-13,56.3,43.1,32.2,33.4,29.7,26.1,90,62,35,29.69,29.54,16,4,16,0.00
2013-2-14,52.9,39.5,34.5,36.7,32.2,28.9,84,76,50,29.81,29.55,18,5,18,0.00
2013-2-15,38.3,33.0,28.4,31.1,21.9,12.9,85,65,37,30.00,29.80,19,7,19,0.00
2013-2-17,48.9,37.9,32.4,22.9,21.8,19.0,64,53,33,29.91,29.72,9,4,9,0.00
2013-2-18,52.2,37.4,34.2,42.5,27.2,22.1,76,66,59,29.73,29.55,17,5,17,0.00
2013-2-20,24.6,23.0,19.6,16.6,12.3,6.5,81,64,53,30.17,30.05,11,4,11,0.00
2013-2-21,26.6,20.3,17.8,19.1,16.1,14.9,90,84,73,30.09,29.86,14,3,14,0.00
2013-2-25,50.5,40.4,34.3,34.3,31.5,29.3,85,71,47,29.76,29.48,0,0,0,0.00
2013-2-26,36.1,29.8,-3.6,33.7,27.5,-4.6,96,91,83,29.48,29.20,0,0,6,0.00
2013-5-14,93.7,86.2,77.7,60.2,58.5,57.0,51,40,30,29.59,29.55,12,5,12,0.00
2013-5-15,93.6,82.3,73.4,65.0,63.1,60.3,73,54,34,29.65,29.59,9,4,14,0.00
2013-5-16,83.1,72.1,63.1,68.2,63.3,58.1,89,75,48,29.75,29.63,8,2,11,0.00
2013-5-17,83.7,71.0,61.7,65.5,62.8,57.7,96,77,52,29.78,29.72,8,1,8,0.00
2013-5-18,88.2,73.6,61.5,67.4,63.7,60.6,98,74,47,29.81,29.70,9,1,9,0.00
2013-5-19,95.2,79.3,64.2,74.2,68.4,62.5,95,71,48,29.73,29.54,14,2,14,0.00
2013-5-20,90.1,77.0,62.8,69.9,65.7,59.0,98,70,43,29.70,29.51,19,4,21,0.00
2013-5-21,87.6,73.3,62.6,69.6,65.2,61.8,98,77,53,29.67,29.50,11,4,12,0.00
2013-5-22,80.2,69.4,62.8,65.2,59.6,54.1,90,72,42,29.63,29.45,12,4,13,0.00
2013-5-23,64.4,59.2,48.2,59.9,53.1,44.4,90,80,74,30.03,29.62,13,5,13,0.00
2013-5-24,79.7,58.2,41.4,46.0,40.3,33.8,91,57,19,30.18,30.03,9,2,10,0.00
2013-5-25,66.7,55.9,50.2,53.2,47.5,41.6,87,73,47,30.17,29.97,8,2,9,0.00
2013-5-26,68.0,58.9,53.1,62.1,54.3,47.8,93,85,74,30.03,29.81,12,3,12,0.00
2013-5-27,84.7,68.0,61.7,69.5,63.2,58.8,98,86,56,29.84,29.55,16,2,18,0.00
2013-5-28,86.9,72.6,-9.9,71.9,65.8,-14.2,99,80,57,29.72,29.57,15,4,18,0.00
2013-5-29,93.0,77.8,64.4,70.1,65.3,59.8,86,67,44,29.77,29.66,12,3,14,0.00
2013-5-30,90.0,77.4,66.2,72.0,67.5,63.3,93,73,50,29.74,29.62,15,4,21,0.00
2013-5-31,81.1,71.4,63.1,72.6,67.1,62.2,98,87,66,29.71,29.56,14,3,17,0.00
2013-6-1,76.8,68.2,63.3,67.4,63.8,57.4,99,86,66,29.67,29.50,12,4,14,0.00
2013-6-2,68.5,62.7,59.2,59.9,57.5,54.7,91,83,71,29.81,29.63,10,4,13,0.00
2013-6-3,76.5,62.5,54.9,55.0,50.7,47.2,90,68,38,29.90,29.80,8,2,9,0.00
2013-6-4,81.3,67.1,51.8,57.9,54.1,49.1,93,66,42,29.89,29.80,8,2,8,0.00
2013-6-5,92.1,74.9,58.5,62.9,58.6,54.6,90,60,30,29.83,29.64,4,1,6,0.00
2013-6-6,112.8,74.2,34.2,99.9,62.4,13.3,87,69,10,29.65,29.58,10,5,11,0.00
2013-6-7,78.3,67.7,57.7,61.2,56.0,14.1,87,68,10,29.69,29.63,11,5,14,0.00
2013-6-8,63.3,63.3,63.3,57.1,57.1,57.1,80,80,80,29.77,29.68,0,0,0,0.00